Location: Newark
(44.6419°N, 3.3467°E)
Time: 01:37:28
(UTC+00:00)

Envisat - Visible Passes

Search period start: 13 November 2019 00:00
Search period end: 23 November 2019 00:00
Orbit: 764 x 766 km, 98.1° (Epoch: 12 November)

Date Brightness Start Highest point End Pass type
(mag) Time Alt. Az. Time Alt. Az. Time Alt. Az.
13 Nov 2.9 17:40:04 10° SSE 17:45:09 84° ENE 17:50:16 10° NNW visible
13 Nov 6.1 19:22:47 10° WSW 19:24:50 12° W 19:26:52 10° WNW visible
14 Nov 5.5 05:47:44 10° NE 05:51:57 26° E 05:56:08 10° SSE visible
14 Nov 3.4 17:03:48 10° SE 17:08:31 40° ENE 17:13:14 10° N visible
14 Nov 5.1 18:43:24 10° SSW 18:47:39 27° W 18:51:56 10° NW visible
15 Nov 6.3 05:12:59 10° ENE 05:14:45 12° E 05:16:31 10° ESE visible
15 Nov 3.6 18:05:41 10° S 18:10:40 57° W 18:15:42 10° NNW visible
16 Nov 2.9 17:28:52 10° SSE 17:33:54 68° ENE 17:38:57 10° N visible
16 Nov 5.8 19:10:24 10° SW 19:13:25 16° W 19:16:26 10° NW visible
17 Nov 5.9 05:36:48 10° NE 05:40:35 21° E 05:44:19 10° SE visible
17 Nov 3.7 16:52:50 10° SE 16:57:19 33° ENE 17:01:49 10° N visible
17 Nov 4.7 18:31:44 10° SSW 18:36:18 33° W 18:40:53 10° NNW visible
18 Nov 3.2 17:54:19 10° S 17:59:22 72° WSW 18:04:29 10° NNW visible
19 Nov 4.9 06:01:38 10° NNE 06:06:17 35° E 06:10:54 10° SSE visible
19 Nov 3.1 17:17:44 10° SSE 17:22:40 54° ENE 17:27:37 10° N visible
19 Nov 5.5 18:58:22 10° SW 19:02:01 20° W 19:05:41 10° NW visible
20 Nov 6.0 05:26:01 10° NE 05:29:10 16° E 05:32:20 10° SE visible
20 Nov 3.9 16:41:56 10° ESE 16:46:08 27° ENE 16:50:20 10° N visible
20 Nov 4.3 18:20:10 10° SSW 18:24:57 41° W 18:29:46 10° NNW visible
21 Nov 3.0 17:43:01 10° SSE 17:48:06 89° WSW 17:53:13 10° NNW visible
21 Nov 6.2 19:26:24 10° WSW 19:27:50 11° W 19:29:17 10° WNW visible
22 Nov 5.3 05:50:35 10° NE 05:54:56 28° E 05:59:15 10° SSE visible
22 Nov 3.3 17:06:39 10° SE 17:11:26 43° ENE 17:16:14 10° N visible
22 Nov 5.2 18:46:32 10° SSW 18:50:37 25° W 18:54:46 10° NW visible
